This is the latest recevied weather packets stored in our database for station/object RA1AMW-14. If no packets are shown the sender has not sent any weather packets the latest 10 day(s).
| Time | Temp. | Humidity | Pressure | Rain* | Wind** | Luminosity | Snow |
|---|---|---|---|---|---|---|---|
| 1778132404 | 16.11° C | 10% | 1000.1 hPa | 0 mm | - | - | - |
| 1778131804 | 17.22° C | 10% | 1000.2 hPa | 0 mm | - | - | - |
| 1778131204 | 16.67° C | 10% | 1000 hPa | 0 mm | - | - | - |
| 1778130603 | 15° C | 10% | 999.9 hPa | 0 mm | - | - | - |
| 1778130004 | 12.78° C | 10% | 1000.1 hPa | 0 mm | - | - | - |
| 1778129406 | 12.22° C | 10% | 1000.1 hPa | 0 mm | - | - | - |
| 1778128803 | 12.22° C | 10% | 1000.1 hPa | 0 mm | - | - | - |
| 1778127604 | 11.67° C | 10% | 1000.2 hPa | 0 mm | - | - | - |
| 1778127004 | 10.56° C | 10% | 1000.2 hPa | 0 mm | - | - | - |
| 1778125804 | 6.67° C | 10% | 1000 hPa | 0 mm | - | - | - |
| 1778124605 | 4.44° C | 10% | 999.9 hPa | 0 mm | - | - | - |
| 1778124003 | 3.89° C | 10% | 999.9 hPa | 0 mm | - | - | - |
| 1778122804 | 2.78° C | 10% | 999.8 hPa | 0 mm | - | - | - |
| 1778121604 | 1.11° C | 10% | 999.9 hPa | 0 mm | - | - | - |
| 1778121005 | 0.56° C | 10% | 999.8 hPa | 0 mm | - | - | - |
| 1778119804 | 0° C | 10% | 999.7 hPa | 0 mm | - | - | - |
| 1778119204 | 0° C | 10% | 999.5 hPa | 0 mm | - | - | - |
| 1778117404 | 0° C | 10% | 999.9 hPa | 0 mm | - | - | - |
| 1778116803 | 0° C | 10% | 999.7 hPa | 0 mm | - | - | - |
| 1778116203 | 0° C | 10% | 999.8 hPa | 0 mm | - | - | - |
| 1778115604 | 0.56° C | 10% | 999.7 hPa | 0 mm | - | - | - |
| 1778115003 | 0.56° C | 10% | 999.6 hPa | 0 mm | - | - | - |
| 1778114403 | 0.56° C | 10% | 999.7 hPa | 0 mm | - | - | - |
| 1778113804 | 0.56° C | 10% | 999.8 hPa | 0 mm | - | - | - |
| 1778112604 | 0.56° C | 10% | 999.9 hPa | 0 mm | - | - | - |
* Rain latest hour (hover to see other rain measurements)
** Current wind speed in m/s (hover to see current wind gust speed)